Theta_e
324 317 317 322 323 324 327 327 326 331 335 334 334 329 332 331 335 334 333 335 335 328 328 321 317 314 313 312 311 313 315 314 314 314 314 314 313 313 312 312 312 313 316 318 318 317 319 322 324
320 316 320 322 323 327 323 325 327 333 337 335 331 332 335 338 335 337 335 338 339 331 323 321 318 316 314 313 312 313 315 315 315 314 315 315 315 315 314 314 315 316 320 321 321 326 329 331 333
319 321 319 323 325 325 325 326 334 338 336 335 335 332 334 337 336 336 336 337 339 336 326 320 319 316 316 314 312 313 315 316 316 315 315 316 316 316 316 316 318 320 330 332 332 334 334 335 336
322 322 318 324 327 327 325 329 330 335 336 332 334 334 330 335 336 336 336 338 338 335 325 321 319 317 317 316 314 313 314 316 317 316 316 316 317 317 318 319 321 324 333 335 336 337 338 338 338
323 318 320 324 326 328 329 329 327 328 336 334 333 334 331 332 335 337 337 339 339 330 324 323 320 318 317 317 315 314 314 315 317 317 317 317 317 319 320 321 323 326 334 337 338 338 339 339 339
321 319 324 322 323 325 327 326 327 329 334 336 335 332 331 331 337 337 337 338 339 331 326 324 321 319 317 317 316 315 313 315 316 317 318 318 318 319 320 322 324 327 334 337 339 339 337 336 336
319 320 324 326 328 328 329 327 328 331 327 333 331 331 329 331 337 337 336 337 339 334 329 326 323 320 318 317 317 316 314 314 316 317 318 318 319 319 320 322 324 329 334 336 339 338 335 333 333
317 318 323 323 326 327 328 326 327 327 329 327 330 331 331 330 335 338 341 340 339 336 332 328 326 321 318 317 317 317 315 314 315 316 318 319 320 320 322 322 324 327 331 332 331 331 330 331 331
317 320 321 323 324 326 325 327 328 328 328 327 328 329 328 331 331 333 340 341 341 339 336 330 328 326 321 318 317 316 315 314 314 315 317 319 321 323 324 322 322 325 329 331 332 331 330 330 330
324 320 320 320 322 324 321 322 323 326 326 326 326 329 330 330 330 328 327 328 334 340 339 337 334 330 326 321 322 318 317 316 314 315 317 319 323 324 325 324 323 325 331 333 333 332 331 330 328
330 331 322 322 322 322 322 322 322 324 325 325 327 327 327 328 325 324 326 328 329 333 337 338 338 336 332 327 326 323 321 319 318 317 319 320 324 325 328 326 325 327 333 334 335 334 331 330 329
332 331 331 328 325 326 326 325 324 323 324 324 325 325 326 325 324 323 323 326 327 326 328 333 337 339 338 333 330 328 327 324 321 321 322 322 325 326 328 327 326 331 333 334 335 335 333 331 330
321 328 327 328 327 329 329 329 328 326 325 324 325 325 325 325 323 324 326 326 327 325 326 330 335 338 340 339 334 333 329 329 325 326 327 324 324 324 327 326 326 333 334 334 334 334 333 331 331
314 317 318 320 322 322 324 324 324 325 326 326 327 326 323 322 321 322 324 324 326 327 328 327 330 335 341 341 339 338 335 333 332 329 330 328 325 324 325 325 328 335 335 334 334 334 333 332 331
313 313 315 315 315 316 320 322 324 323 324 325 326 324 323 321 322 321 324 325 326 326 327 327 327 329 336 340 340 340 339 338 336 333 332 330 329 326 323 325 333 337 335 333 335 333 332 332 331
316 313 314 316 316 317 319 324 323 323 324 325 324 322 323 323 321 323 324 324 326 326 326 327 326 327 333 337 340 340 340 340 339 337 335 334 331 329 328 327 335 337 334 336 334 333 332 332 331
314 319 318 318 318 318 319 322 322 321 322 322 322 322 322 322 321 323 324 325 326 326 326 326 326 328 331 337 340 341 341 340 340 339 338 335 333 331 329 329 337 335 335 335 334 333 332 332 331
317 318 319 320 318 318 319 320 321 321 320 321 320 321 321 321 321 322 323 324 325 325 325 325 327 328 334 341 342 342 342 341 341 341 340 339 337 337 334 335 337 334 335 334 334 333 333 332 331
312 315 317 318 317 318 319 319 319 319 320 320 321 322 322 321 320 322 323 323 324 325 324 326 327 328 335 343 342 342 342 342 341 341 341 340 340 339 337 338 337 334 334 333 333 333 331 331 330
310 311 312 314 315 315 317 318 317 318 319 320 320 320 320 320 320 320 320 321 323 324 325 326 327 328 334 340 342 342 340 341 342 342 342 342 341 341 340 335 333 334 334 334 333 332 330 329 329
309 311 312 314 314 314 314 315 315 315 314 316 317 318 318 318 319 318 318 319 322 324 326 328 327 329 338 341 343 341 340 340 339 340 340 337 337 336 338 332 334 334 334 332 332 330 329 328 328
307 310 312 314 313 314 314 316 314 314 314 315 314 315 316 317 317 317 318 318 321 324 328 333 333 338 343 343 343 339 336 334 335 336 336 334 334 332 333 334 335 334 332 330 330 330 329 328 326
309 308 310 313 313 312 313 313 313 313 313 313 314 314 315 316 316 316 316 316 321 329 335 342 343 344 345 345 343 339 335 335 335 334 334 333 334 334 335 335 333 331 331 329 330 330 329 328 327
306 307 309 309 311 313 313 313 314 313 313 313 315 316 316 315 315 315 317 321 331 336 343 345 345 345 345 345 343 341 338 336 334 333 333 334 335 335 333 332 332 331 328 329 329 329 329 329 328
305 304 309 311 312 314 313 314 314 313 314 314 314 314 314 314 314 318 331 333 335 341 342 344 345 342 344 344 341 341 339 337 334 333 333 334 333 333 333 332 332 331 329 329 329 330 329 329 328
304 303 307 313 315 313 313 315 315 313 314 315 314 313 313 314 318 322 332 334 338 339 341 342 341 339 342 341 338 336 334 333 334 333 334 333 333 332 331 330 330 329 329 330 330 329 328 328 328
309 304 305 306 308 310 313 313 314 314 315 314 314 313 313 319 332 333 335 337 338 337 336 339 337 335 335 334 334 333 333 333 333 333 333 332 332 332 330 329 330 330 331 331 330 329 326 328 328
308 309 305 304 310 313 313 314 316 315 314 315 315 314 317 333 334 336 337 336 336 336 336 337 335 333 333 333 333 333 333 333 332 332 331 330 331 328 329 330 331 332 331 330 330 329 327 327 327
307 310 309 306 306 312 314 314 313 315 315 315 314 316 326 333 335 337 336 334 335 334 334 333 333 333 333 333 333 333 333 333 332 331 330 330 329 329 330 331 331 331 330 330 330 328 326 327 325
309 309 310 310 310 309 311 313 313 312 312 313 316 324 332 333 335 336 335 334 334 333 333 332 333 333 333 333 333 333 332 331 330 330 330 330 330 330 330 330 330 331 330 329 330 328 327 325 325
Wind_Speed
6 3 4 3 3 4 4 6 4 4 1 4 1 4 11 7 6 5 2 29 17 28 35 36 31 28 26 25 24 22 20 19 18 17 16 15 14 12 12 11 11 11 10 8 7 5 4 3 2
5 7 2 2 4 2 5 5 8 4 5 3 4 5 3 2 4 2 10 26 14 28 36 36 33 30 28 26 25 23 21 20 18 17 16 15 14 12 12 11 10 10 9 9 7 6 4 4 3
7 4 3 4 4 5 5 5 2 3 9 5 5 1 6 4 3 10 5 26 20 30 35 38 35 33 30 28 27 25 24 22 20 19 18 17 15 14 13 11 10 10 10 9 8 7 5 6 6
6 2 3 3 7 5 6 2 4 4 5 7 3 6 2 7 11 15 19 25 24 32 37 38 37 35 32 30 29 27 26 24 22 21 19 17 15 15 14 12 10 10 10 10 9 8 8 9 9
5 3 1 3 5 4 6 9 7 8 3 6 3 4 1 1 6 18 30 29 28 34 38 38 38 36 34 32 31 29 29 27 25 23 20 18 17 16 15 13 11 10 10 11 10 9 10 12 13
2 3 0 6 5 3 3 8 6 6 6 4 3 3 1 3 16 21 25 29 28 33 36 40 39 38 37 36 34 33 31 29 28 26 24 21 20 17 15 14 11 10 11 11 10 10 11 13 14
5 4 4 3 3 5 3 3 4 5 6 4 3 6 3 3 23 25 27 27 31 31 35 41 41 41 41 39 37 35 34 33 31 29 26 24 22 20 17 14 11 10 11 11 10 11 12 13 14
4 3 2 5 4 5 5 3 4 1 3 6 2 4 4 9 24 24 24 26 31 33 35 40 40 42 43 42 40 38 37 35 33 32 29 27 24 21 18 15 12 10 11 10 10 10 11 13 14
5 2 5 6 8 4 6 7 3 1 4 3 2 3 9 10 17 19 22 20 24 28 32 37 41 42 44 43 42 39 38 36 34 33 31 29 27 24 21 17 14 11 11 11 10 10 11 13 14
5 6 10 7 8 2 8 7 15 7 14 7 5 4 7 13 12 14 11 18 27 33 36 38 40 43 44 45 43 42 41 40 39 37 36 33 31 27 24 19 15 13 13 12 12 12 12 11 12
6 10 15 11 10 6 8 4 8 14 18 15 6 7 7 6 8 11 21 25 34 40 37 43 43 43 44 45 45 45 45 44 42 41 38 36 33 29 27 22 18 16 15 16 15 15 15 14 13
6 10 14 11 5 4 12 3 10 14 19 16 18 13 8 12 10 9 13 24 28 28 36 40 44 45 46 44 43 43 45 47 46 45 42 38 35 32 29 25 21 19 17 17 17 18 17 17 15
15 9 6 9 9 11 11 18 19 20 15 16 17 16 13 12 10 18 20 19 19 19 25 33 37 45 47 47 43 42 46 47 48 45 44 41 39 36 31 26 23 22 20 19 18 18 18 19 16
1 8 13 11 15 7 12 18 16 17 19 18 15 14 12 11 12 14 18 17 21 28 28 30 33 38 41 47 48 48 46 45 42 43 43 42 40 35 31 29 26 24 22 19 18 18 19 20 18
4 8 11 13 4 7 3 21 25 19 22 24 18 14 15 10 11 11 22 26 35 39 34 34 31 34 39 45 47 47 45 42 42 42 42 39 38 35 34 31 27 25 21 18 17 17 18 19 20
3 4 14 17 13 7 8 31 9 6 16 23 19 13 13 17 11 20 28 32 39 41 37 36 29 30 38 40 44 43 41 40 37 36 38 35 33 35 34 29 28 23 20 17 18 18 17 17 19
5 12 15 11 5 7 12 37 13 15 15 18 15 15 14 13 11 22 34 39 45 46 44 38 31 30 37 41 39 38 35 36 34 34 32 30 27 32 28 32 27 21 17 18 18 19 19 19 20
10 14 3 4 3 8 12 30 18 10 9 14 12 14 15 18 18 26 35 38 41 42 39 33 30 31 32 34 32 29 29 29 30 29 30 26 27 24 26 28 24 18 18 17 18 19 18 21 25
6 6 2 4 7 12 17 27 24 18 19 22 22 23 23 20 15 22 30 40 37 36 32 29 28 29 29 30 27 27 30 30 27 28 26 24 23 23 26 25 22 19 18 18 18 16 19 21 21
12 10 8 6 11 5 10 17 17 14 16 17 17 16 15 14 16 16 22 29 32 37 32 29 31 28 30 32 26 17 24 26 27 24 23 24 22 21 24 22 22 20 19 18 17 18 16 14 12
7 8 9 8 9 18 12 18 15 12 11 15 12 15 11 13 15 12 13 19 24 24 29 27 24 26 27 27 22 18 22 21 20 23 23 20 22 23 26 21 22 19 17 15 13 13 14 13 8
15 4 9 4 5 9 0 16 20 18 23 20 12 16 14 15 11 9 11 12 18 26 20 18 19 22 24 24 24 28 22 20 20 29 26 23 25 23 23 23 22 17 13 12 11 10 11 12 9
7 12 11 10 8 4 4 4 24 5 17 20 20 19 22 21 16 13 14 9 18 14 16 14 18 20 23 26 29 31 27 20 23 22 21 19 20 20 21 20 15 12 11 9 9 9 9 11 10
6 4 8 9 2 5 11 9 24 9 16 12 10 10 11 11 10 10 8 9 9 13 18 20 22 23 25 25 28 30 30 22 21 18 17 16 16 18 16 14 12 10 8 8 8 9 10 11 12
5 3 1 2 3 12 12 11 25 7 4 4 8 10 11 10 9 9 7 6 9 14 18 23 25 26 24 24 24 23 23 18 19 19 19 20 18 16 13 11 10 9 8 7 7 10 10 11 13
7 9 4 6 5 5 11 13 11 10 16 17 14 11 9 10 7 7 6 6 10 16 20 24 27 26 24 23 21 20 19 19 19 20 19 16 14 9 8 9 8 7 7 8 10 10 8 11 11
2 4 9 4 3 2 7 9 13 21 18 9 11 7 10 9 4 6 7 9 12 15 20 26 28 28 27 26 24 23 21 21 20 17 14 12 8 9 9 8 6 5 7 9 8 9 12 12 11
5 3 3 1 5 5 5 8 12 6 23 3 9 9 9 5 7 8 8 10 14 19 24 29 30 29 30 29 26 24 21 19 17 14 13 11 11 10 8 6 5 4 4 5 6 7 9 8 9
2 2 4 3 5 4 3 6 7 12 8 9 14 14 9 9 9 9 8 10 16 21 23 26 31 32 30 26 24 23 20 17 14 13 13 13 13 10 7 5 4 3 3 4 6 8 7 9 8
2 4 3 3 6 8 2 7 8 6 6 9 14 16 7 9 9 10 9 10 14 16 21 25 29 30 27 25 22 21 18 15 13 13 13 12 12 10 7 4 3 2 4 5 3 6 8 7 6
Wind_Direction
211 183 155 92 69 63 265 255 267 294 272 216 325 162 177 155 172 211 247 177 192 184 183 185 178 178 179 176 172 168 163 162 159 158 159 158 159 161 165 168 170 171 173 176 178 180 186 197 219
184 153 130 97 112 114 266 238 239 241 242 264 146 112 128 188 181 180 129 175 186 185 184 185 182 182 184 180 180 175 173 172 168 168 168 167 168 170 175 173 175 179 180 183 185 190 200 229 240
171 218 110 151 170 173 232 221 171 270 298 290 128 91 163 200 145 159 176 178 187 187 190 189 186 187 187 186 186 182 182 180 178 179 178 178 177 179 181 180 184 186 189 194 203 212 224 244 247
157 351 26 164 217 225 224 304 329 299 288 264 208 131 138 185 165 170 172 181 183 188 192 193 192 192 191 191 193 190 189 187 188 189 187 186 185 185 186 187 187 195 201 207 216 233 238 250 258
142 73 193 237 239 231 266 279 284 270 229 275 284 150 124 4 200 161 175 184 187 192 195 197 197 197 197 197 198 196 197 195 195 195 195 195 193 192 193 193 193 199 211 220 226 241 253 256 256
82 117 236 236 233 249 263 256 278 285 220 238 296 65 182 196 173 180 184 192 197 198 200 201 201 202 202 203 203 202 202 201 202 201 199 200 200 198 199 200 196 205 217 228 235 249 257 261 260
151 124 222 246 269 308 231 324 247 223 277 256 135 129 292 231 194 187 194 197 201 206 204 205 205 206 207 207 206 207 206 205 207 207 206 205 205 204 203 204 202 210 224 236 245 256 264 266 268
140 124 221 241 201 264 264 214 238 70 358 18 22 158 216 224 201 201 202 202 206 211 212 209 211 210 210 211 210 210 211 210 211 211 211 211 211 208 207 207 207 214 226 239 248 257 269 270 269
140 117 217 233 170 227 299 343 221 279 338 17 338 151 253 208 198 201 206 216 219 220 220 215 216 215 214 215 215 213 214 216 216 217 216 215 214 212 210 211 213 222 227 236 242 254 265 272 267
168 186 223 198 205 108 326 344 315 351 317 294 311 336 293 208 194 194 198 214 219 224 223 224 223 221 219 218 217 216 216 216 218 219 218 216 216 215 217 215 215 227 229 234 241 249 259 260 261
203 221 228 243 218 200 261 271 271 302 297 270 288 297 270 211 210 219 227 221 216 225 227 228 229 225 222 220 219 217 218 218 219 220 219 218 217 216 218 218 219 225 230 237 240 244 247 252 257
237 215 226 254 230 231 232 230 246 241 252 280 291 280 283 293 276 223 229 248 245 235 236 233 231 227 226 221 220 217 220 219 221 222 220 218 218 216 219 220 224 226 228 234 239 245 248 251 254
244 238 228 247 260 250 266 259 258 251 250 264 267 277 265 260 250 264 263 273 280 256 243 235 231 229 228 222 219 221 224 222 222 223 223 219 220 218 218 223 226 226 227 236 240 242 244 248 253
124 220 244 248 257 264 255 265 264 266 270 252 259 260 248 232 246 267 277 263 273 279 270 253 236 231 226 224 224 226 226 225 221 223 225 222 223 220 222 225 227 228 233 237 238 242 241 245 250
262 292 281 239 199 241 359 273 253 258 266 272 273 264 270 257 248 228 259 268 284 287 280 265 248 233 229 228 226 225 227 223 223 222 225 226 224 221 223 226 228 229 232 236 235 231 237 244 248
216 191 244 254 227 217 166 261 239 254 242 260 260 261 272 278 276 282 279 280 285 285 275 266 248 239 231 226 226 224 223 224 222 223 225 226 225 225 221 225 227 226 233 233 226 230 231 239 240
235 239 228 260 203 208 185 257 248 246 255 261 265 269 272 275 284 283 283 279 279 279 278 267 254 241 228 223 220 222 221 223 222 223 222 221 220 224 218 221 221 222 231 229 225 225 233 245 248
217 229 295 182 206 225 236 256 252 244 250 260 263 268 271 272 271 273 273 271 273 277 277 271 253 226 219 218 215 215 218 220 220 221 216 212 212 216 211 220 215 222 228 228 230 236 241 253 260
339 301 15 337 227 218 225 250 257 255 253 257 259 262 262 265 261 266 270 271 274 277 274 250 228 216 212 206 195 198 200 203 208 211 210 205 209 206 205 213 218 223 229 237 239 254 266 265 262
261 275 277 281 270 272 280 273 281 267 257 256 260 256 253 267 272 269 267 271 275 268 261 236 230 222 215 207 194 195 193 196 197 197 197 201 200 201 200 217 221 229 232 241 253 258 262 261 253
235 227 254 247 310 299 304 286 272 262 254 254 255 257 254 244 260 263 270 263 266 257 247 228 221 217 210 196 175 161 170 166 165 175 172 182 190 204 208 222 220 235 241 247 253 253 244 249 233
253 230 254 261 211 259 333 289 274 270 266 260 247 254 255 250 249 241 260 271 259 254 236 224 213 201 195 184 174 155 146 155 164 170 183 191 200 208 215 216 222 229 231 241 251 248 249 231 216
250 236 251 227 241 274 254 290 278 244 260 250 248 248 251 254 249 246 252 253 263 232 207 192 182 174 174 173 173 162 156 155 163 173 180 193 201 210 212 217 212 214 232 243 240 243 238 227 221
253 224 229 225 132 250 224 203 275 238 251 248 240 244 244 245 248 251 262 266 205 189 173 165 159 155 161 164 167 169 162 154 153 158 167 175 181 187 197 197 212 226 228 236 240 240 237 234 232
177 85 253 138 190 229 199 201 238 268 276 256 255 258 258 263 266 248 214 162 134 132 142 148 149 146 154 158 161 164 163 160 162 165 165 162 164 180 197 215 220 221 230 243 238 236 236 235 231
191 164 185 182 183 226 249 233 244 231 259 259 260 258 262 259 257 247 171 141 129 125 134 139 140 140 148 152 151 154 158 161 164 164 163 168 180 192 204 213 206 214 231 242 238 238 236 233 234
226 163 216 360 240 223 233 276 281 271 269 277 271 280 258 251 199 146 130 128 119 121 133 138 135 139 141 139 144 149 149 147 151 157 165 176 179 182 182 179 194 216 243 256 253 231 215 231 238
169 205 100 138 225 238 258 253 233 251 251 279 273 252 253 182 140 130 127 122 122 131 137 140 142 139 139 137 137 140 143 146 147 155 164 169 163 163 169 180 199 226 260 270 251 225 211 210 207
283 197 210 195 210 223 290 259 205 213 271 324 300 291 206 174 146 134 129 123 121 132 135 135 139 139 138 138 140 141 142 144 151 160 161 158 154 161 167 175 192 217 254 261 237 216 196 180 189
272 246 170 197 231 251 255 265 276 295 321 303 303 306 143 132 128 124 127 126 129 133 134 136 142 143 143 143 145 148 148 151 155 159 160 163 168 165 166 170 193 215 252 266 247 220 208 202 202